Preview of NWS' New Version of Forecast
This preview is not operational and should not be used for support decisions.

Regional Weather Roundup (RWR)

Issued by National Weather Service (NWS)

                            
000
ASUS46 KSEW 172010
RWRWA 

WASHINGTON REGIONAL WEATHER ROUNDUP
NATIONAL WEATHER SERVICE SEATTLE WA
100 PM PDT TUE SEP 17 2019

NOTE:"FAIR" INDICATES FEW OR NO CLOUDS BELOW 12,000 FEET WITH NO 
SIGNIFICANT WEATHER AND/OR OBSTRUCTIONS TO VISIBILITY.

WAZ507-509-555>559-172100-
SEATTLE, TACOMA, EVERETT, AND VICINITY
  
CITY           SKY/WX    TMP DP  RH WIND       PRES   REMARKS
EVERETT        CLOUDY    57  52  83 SE8       29.74S                  
BOEING FIELD   CLOUDY    61  54  77 S8        29.73S                  
RENTON         LGT RAIN  59  55  87 CALM      29.73S                  
SEATAC AIRPORT LGT RAIN  58  53  84 S6        29.74R                  
JBLM-MCCHORD   CLOUDY    62  59  89 S13G20    29.72F                  
PUYALLUP       CLOUDY    64  50  59 S13G22    29.73R                  
BREMERTON      LGT RAIN  57  54  89 S9G22     29.72R                  
JBLM-FT LEWIS  CLOUDY    63  58  82 SE17G33   29.70F                  
TACOMA NARROWS CLOUDY    56  54  93 SE3       29.72F                  
$$
 
WAZ001-503-506-510-514-515-172100-
NORTH INTERIOR
  
CITY           SKY/WX    TMP DP  RH WIND       PRES   REMARKS
BELLINGHAM     CLOUDY    64  48  56 SE21G38   29.68S                  
FRIDAY HARBOR  CLOUDY    59  51  75 S16G28    29.68R                  
EASTSOUND      CLOUDY    63  52  67 S18G33    29.65S                  
PORT ANGELES   LGT RAIN  57  54  89 NW6       29.65R                  
EDIZ HOOK      LGT RAIN  55  53  93 W6        29.64R                  
PORT TOWNSEND  PTSUNNY   59  57  94 SE17G28   29.67S FOG              
NAS WHIDBEY    PTSUNNY   65  50  58 SE26G38   29.71R                  
ARLINGTON      LGT RAIN  59  53  80 CALM      29.73F                  
BURLINGTON     CLOUDY    64  52  63 E17       29.70S                  
$$
 
WAZ020-022-039-040-504-511-512-172100-
SOUTHWEST INTERIOR
  
CITY           SKY/WX    TMP DP  RH WIND       PRES   REMARKS
SHELTON        LGT RAIN  58  54  86 SE8       29.69R FOG              
OLYMPIA        CLOUDY    62  53  72 S25G32    29.70F                  
CHEHALIS       PTSUNNY   61  55  82 S17G26    29.74R                  
KELSO          LGT RAIN  59  55  87 SE13G25   29.77F                  
VANCOUVER      CLOUDY    61  53  75 E9        29.78F                  
SCAPPOOSE, OR  RAIN      57  55  93 VRB5      29.78S FOG              
PORTLAND, OR   CLOUDY    62  54  74 SE15      29.79S                  
$$
 
WAZ021-516-517-172100-
WASHINGTON COAST
  
CITY           SKY/WX    TMP DP  RH WIND       PRES   REMARKS
FORKS          LGT RAIN  60  59  96 MISG      29.62S FOG              
HOQUIAM        CLOUDY    61  60  97 S9        29.68R                  
ASTORIA, OR    MOSUNNY   65  58  78 S12G21    29.69S                  
$$
 
WAZ019-023-024-040-567>569-172100-
CASCADE MOUNTAINS AND COLUMBIA GORGE
  
CITY           SKY/WX    TMP DP  RH WIND       PRES   REMARKS
STAMPEDE PASS  NOT AVBL                                               
TROUTDALE, OR  CLOUDY    60  54  80 E13       29.80F                  
HOOD RIVER, OR CLOUDY    55  54  94 N5        29.84F                  
THE DALLES, OR CLOUDY    60  53  77 CALM      29.84F                  
$$

WAZ026-027-041>044-520-521-172100-
EAST SLOPES
  
CITY           SKY/WX    TMP DP  RH WIND       PRES   REMARKS
OMAK           CLOUDY    62  44  51 S15G21    29.84F                  
WENATCHEE      LGT RAIN  55  46  71 E13G18    29.83S                  
ELLENSBURG     LGT RAIN  57  50  77 E9        29.84F                  
YAKIMA         CLOUDY    61  50  67 VRB5      29.85S                  
SUNNYSIDE ARPT LGT RAIN  62  49  61 SW5       29.86S                  
YAKIMA TC      MOCLDY    57  50  77 CALM      29.83F                  
$$

WAZ028-034-035-172100-
COLUMBIA BASIN
  
CITY           SKY/WX    TMP DP  RH WIND       PRES   REMARKS
EPHRATA        LGT RAIN  64  42  44 S14       29.84F                  
MOSES LAKE     CLOUDY    65  42  43 S15       29.86F                  
PASCO          CLOUDY    71  41  33 S13       29.86F                  
RICHLAND ARPT  CLOUDY    71  41  33 S13       29.85                   
HERMISTON, OR  CLOUDY    72  40  31 SW13G23   29.85F                  
$$

WAZ036>038-172100-
NORTHEAST WASHINGTON
  
CITY           SKY/WX    TMP DP  RH WIND       PRES   REMARKS
SPOKANE GEIGER PTSUNNY   62  41  46 SW17G24   29.91F                  
SPOKANE FELTS  MOSUNNY   64  41  42 SW7       29.92F                  
FAIRCHILD AFB  PTSUNNY   60  43  54 S10       29.92R                  
COEURDALENE,ID CLOUDY    61  40  45 SW12      29.93F                  
DEER PARK      PTSUNNY   58  42  55 S12       29.92F                  
$$

WAZ029>033-172100-
SOUTHEAST WASHINGTON
  
CITY           SKY/WX    TMP DP  RH WIND       PRES   REMARKS
PULLMAN        PTSUNNY   62  38  40 S10       29.94F                  
LEWISTON, ID   MOSUNNY   71  38  29 SE5G18    29.89F                  
WALLA WALLA    PTSUNNY   69  41  36 S10       29.87F                  
PENDLETON, OR  CLOUDY    67  41  38 S14       29.87F                  
$$